Location: Grandview
(34.8900°N, 117.1058°W)
Time: 12:35:51
(UTC-07:00)

Vanguard 1 - All Passes

Search period start: 16 August 2018 00:00
Search period end: 26 August 2018 00:00
Orbit: 650 x 3833 km, 34.3° (Epoch: 15 August)

Date Brightness Start Highest point End Pass type
(mag) Time Alt. Az. Time Alt. Az. Time Alt. Az.
16 Aug - 10:54:30 10° SSE 11:05:07 16° SE 11:16:31 10° E daylight
16 Aug - 13:08:20 10° SSW 13:28:49 47° SE 13:48:38 10° ENE daylight
16 Aug - 15:31:17 10° WSW 15:55:07 78° SSE 16:12:40 10° E daylight
16 Aug - 17:59:14 10° W 18:21:34 88° S 18:34:24 10° E daylight
16 Aug - 20:28:23 10° WNW 20:45:13 62° SSW 20:54:10 10° SE visible
16 Aug - 22:58:11 10° W 23:04:46 17° SW 23:09:38 10° SSW visible
17 Aug - 11:11:36 10° S 11:25:44 23° SE 11:41:22 10° E daylight
17 Aug - 13:28:34 10° SW 13:49:58 56° SSE 14:10:17 10° ENE daylight
17 Aug - 15:52:44 10° WSW 16:16:44 83° SSE 16:33:52 10° E daylight
17 Aug - 18:21:11 10° W 18:43:03 85° S 18:55:25 10° ESE daylight
17 Aug - 20:50:17 10° WNW 21:05:58 51° SW 21:14:36 10° SE visible
17 Aug - 23:23:47 10° WSW 23:24:53 10° WSW 23:25:56 10° SW visible
18 Aug - 11:30:09 10° S 11:46:23 31° SE 12:04:38 10° E daylight
18 Aug - 13:49:09 10° SW 14:11:16 64° SSE 14:31:46 10° ENE daylight
18 Aug - 16:14:23 10° WSW 16:38:26 87° S 16:55:03 10° E daylight
18 Aug - 18:43:07 10° W 19:04:27 80° SSW 19:16:20 10° ESE daylight
18 Aug - 21:12:18 10° WNW 21:26:33 40° SW 21:34:46 10° SSE visible
19 Aug - 11:49:28 10° SSW 12:07:07 39° SE 12:27:08 10° E daylight
19 Aug - 14:10:02 10° SW 14:32:42 72° SSE 14:53:11 10° ENE daylight
19 Aug - 16:36:09 10° W 17:00:09 88° S 17:16:14 10° E daylight
19 Aug - 19:05:02 10° WNW 19:25:41 73° SSW 19:37:09 10° ESE daylight
19 Aug - 21:34:34 10° W 21:46:55 30° SW 21:54:35 10° S visible
20 Aug - 09:56:21 10° SSE 10:05:17 15° SE 10:15:26 10° E daylight
20 Aug - 12:09:18 10° SSW 12:27:58 48° SE 12:49:11 10° ENE daylight
20 Aug - 14:31:10 10° WSW 14:54:15 79° SSE 15:14:32 10° E daylight
20 Aug - 16:57:59 10° W 17:21:51 88° S 17:37:23 10° E daylight
20 Aug - 19:26:55 10° WNW 19:46:45 64° SSW 19:57:48 10° SE visible
20 Aug - 21:57:22 10° W 22:07:07 21° SW 22:13:50 10° S visible
21 Aug - 10:13:21 10° S 10:25:41 22° SE 10:40:36 10° E daylight
21 Aug - 12:29:31 10° SW 12:48:59 56° SE 13:10:57 10° ENE daylight
21 Aug - 14:52:30 10° WSW 15:15:58 84° SSE 15:35:52 10° E daylight
21 Aug - 17:19:51 10° W 17:43:29 85° S 17:58:28 10° ESE daylight
21 Aug - 19:48:52 10° WNW 20:07:37 54° SW 20:18:16 10° SE visible
21 Aug - 22:21:23 10° W 22:27:13 14° WSW 22:31:53 10° SSW visible
22 Aug - 10:31:54 10° S 10:46:07 30° SE 11:04:03 10° E daylight
22 Aug - 12:50:02 10° SW 13:10:11 65° SSE 13:32:35 10° ENE daylight
22 Aug - 15:14:01 10° WSW 15:37:44 87° S 15:57:12 10° E daylight
22 Aug - 17:41:43 10° W 18:05:00 81° SSW 18:19:29 10° ESE daylight
22 Aug - 20:10:55 10° WNW 20:28:14 43° SW 20:38:27 10° SSE visible
23 Aug - 10:51:14 10° SSW 11:06:40 38° SE 11:26:41 10° ENE daylight
23 Aug - 13:10:51 10° SW 13:31:34 73° SSE 13:54:07 10° ENE daylight
23 Aug - 15:35:39 10° W 15:59:34 89° S 16:18:30 10° E daylight
23 Aug - 18:03:34 10° WNW 18:26:22 74° SSW 18:40:21 10° ESE daylight
23 Aug - 20:33:13 10° WNW 20:48:40 34° SW 20:58:18 10° SSE visible
24 Aug - 08:59:17 10° SE 09:05:50 13° ESE 09:13:25 10° E daylight
24 Aug - 11:11:03 10° SSW 11:27:21 47° SE 11:48:52 10° ENE daylight
24 Aug - 13:31:53 10° WSW 13:53:08 79° SSE 14:15:37 10° E daylight
24 Aug - 15:57:21 10° W 16:21:23 88° S 16:39:47 10° E daylight
24 Aug - 18:25:25 10° WNW 18:47:32 65° SSW 19:01:03 10° SE daylight
24 Aug - 20:55:58 10° W 21:08:55 25° SW 21:17:39 10° S visible
25 Aug - 09:15:54 10° SSE 09:26:04 20° SE 09:39:08 10° E daylight
25 Aug - 11:31:14 10° SW 11:48:14 56° SE 12:10:47 10° ENE daylight
25 Aug - 13:53:07 10° WSW 14:14:50 84° SSE 14:37:07 10° E daylight
25 Aug - 16:19:05 10° W 16:43:09 85° S 17:00:58 10° ESE daylight
25 Aug - 18:47:19 10° WNW 19:08:29 56° SW 19:21:32 10° SE daylight
25 Aug - 21:19:40 10° W 21:29:03 17° SW 21:36:07 10° SSW visible
